Regional Weather Roundup
Issued by NWS Lake Charles, LA

Current Version | Previous Version | Text Only | Print | Product List | Glossary On
Versions: 1 2 3 4 5 6 7 8 9 10 11 12 13 14 15 16 17 18 19 20 21 22 23 24 25 26 27 28 29 30 31 32 33 34 35 36 37 38 39 40 41 42 43 44 45 46 47 48 49 50
000 ASUS44 KLCH 191510 RWRLCH REGIONAL WEATHER ROUNDUP NATIONAL WEATHER SERVICE LAKE CHARLES LA 1000 AM CDT MON APR 19 2021 Note: "fair" indicates few or no clouds below 12,000 feet with no significant weather and/or obstructions to visibility. ACROSS SOUTHEAST TEXAS CITY SKY/WX TMP DP RH WIND PRES REMARKS BEAUMONT MOSUNNY 64 47 53 NE9 30.09F BEAUMONT CITY FAIR 63 50 62 NE5 30.11S ORANGE MOSUNNY 64 48 56 NE3 30.12S JASPER SUNNY 61 48 63 CALM 30.11S $$ ACROSS CENTRAL LOUISIANA CITY SKY/WX TMP DP RH WIND PRES REMARKS LEESVILLE NOT AVBL FULLERTON FAIR 65 42 43 CALM 30.08S ALEXANDRIA INT SUNNY 61 49 64 VRB3 30.10S ESLER FIELD SUNNY 63 48 58 NE5 30.11R DERIDDER FAIR 63 48 58 CALM 30.13S OAKDALE MOSUNNY 63 45 51 N6 30.11S OPELOUSAS FAIR 65 49 55 NE3 30.11R $$ ACROSS SOUTHWEST AND SOUTH CENTRAL LOUISIANA CITY SKY/WX TMP DP RH WIND PRES REMARKS DEQUINCY NOT AVBL SULPHUR MOSUNNY 66 49 53 NE7 30.11S LAKE CHARLES MOSUNNY 67 45 45 NE8 30.11R CHENNAULT INT MOSUNNY 63 46 55 NE8 30.11R JENNINGS FAIR 60 50 69 NW3 30.11R LAFAYETTE SUNNY 64 47 53 NE8 30.10R NEW IBERIA SUNNY 65 51 60 NE7 30.10R ABBEVILLE FAIR 63 44 50 N7 30.10R PATTERSON SUNNY 65 48 54 N9 30.09S SALT POINT NOT AVBL $$ SELECTED SITES ACROSS THE REGION CITY SKY/WX TMP DP RH WIND PRES REMARKS HOUSTON BUSH MOSUNNY 67 45 45 N6 30.11S HOUSTON HOBBY PTSUNNY 66 45 46 NE6 30.10S GALVESTON SUNNY 68 44 42 NE12 30.11R COLLEGE STAT MOSUNNY 63 46 54 CALM 30.12S CONROE SUNNY 66 45 46 E5 30.12S HUNTSVILLE MOSUNNY 65 48 54 CALM 30.12S LUFKIN SUNNY 62 47 57 CALM 30.12S SHREVEPORT PTSUNNY 64 45 49 SE3 30.11S MONROE SUNNY 62 47 57 VRB3 30.12R NATCHEZ MS SUNNY 61 45 55 SE5 30.12R BATON ROUGE SUNNY 64 45 49 VRB7 30.09S N.O. INTL ARPT MOSUNNY 66 43 43 N10 30.08R SLIDELL SUNNY 65 40 39 N16 30.06S $$ MARINE REPORTS STATION/POSITION TIME SKY/WX TEMP WIND PRES VSBY AIR SEA DIR/SP/G (UTC) (F) (DEG/KT/KT) (MB) (MI) BUOY 30 S HIGH I 1450 64 70 50/ 14/ 17 1018.4R SEA RIM ST PARK 1400 59 10/ 7/ 9 1019.1F PORT ARTHUR 1430 62 67 360/ 5/ 7 1019.2R TEXAS POINT 1430 62 66 20/ 11/ 13 1017.4S CALCASIEU PASS 1430 61 65 50/ 8/ 12 1017.3S LK CHARLES BEACH 1430 60 68 1019.5S MARSH ISLAND NOT AVBL FRESH WATER LOCK 1424 360/ 9/ 12 N/A AMERADA PASS 1430 63 65 30/ 6/ 12 1018.5R $$

USA.gov is the U.S. government's official web portal to all federal, state and local government web resources and services.